DW6725 Weather Reports


time (UTC)temp
C
wind
direction
speed
KPH
gust
KPH
rain 1hr
cm
rain 24hr
cm
rain mn
cm
humidity
%
barometer
mb
20260507001004 7 360 0.0 6.4 0.00 2.29 1.70 97 1010.9
20260507000004 7 360 0.0 3.2 0.00 2.29 1.70 97 1010.9
20260506235004 7 360 1.6 4.8 0.00 2.29 1.70 97 1010.7
20260506234004 7 360 1.6 6.4 0.00 2.29 1.70 97 1010.6
20260506233004 7 360 1.6 8.0 0.00 2.29 1.70 97 1010.6
20260506232005 7 360 0.0 8.0 0.00 2.29 1.70 97 1010.5
20260506231216 7 360 1.6 6.4 0.00 2.29 1.70 97 1009.9
20260506230005 7 360 1.6 4.8 0.00 2.29 1.70 97 1009.9
20260506225004 7 360 0.0 4.8 0.00 2.29 1.70 96 1009.9
20260506224004 7 360 0.0 3.2 0.00 2.29 1.70 96 1010.2
20260506223006 7 360 1.6 6.4 0.00 2.29 1.70 96 1010.1
20260506222005 7 360 1.6 9.7 0.00 2.29 1.70 96 1010.3
20260506221006 7 360 1.6 11.3 0.00 2.29 1.70 96 1010.4
20260506220005 7 360 1.6 9.7 0.00 2.29 1.70 97 1010.2
20260506215004 7 360 4.8 12.9 0.00 2.29 1.70 97 1010.3
20260506214007 7 360 3.2 12.9 0.00 2.29 1.70 98 1010.1
20260506213213 7 360 4.8 14.5 0.00 2.29 1.70 98 1009.8
20260506212215 7 360 4.8 16.1 0.00 2.29 1.70 99 1010.0
20260506211003 7 360 4.8 16.1 0.00 2.29 1.70 99 1009.9
20260506210005 7 360 6.4 16.1 0.00 2.29 1.70 100 1010.0
20260506205003 7 360 6.4 19.3 0.00 2.29 1.70 100 1009.8
20260506204003 7 360 4.8 14.5 0.00 2.31 1.70 100 1009.8
20260506203003 7 360 6.4 16.1 0.00 2.31 1.70 100 1009.4
20260506202003 7 360 4.8 16.1 0.00 2.31 1.70 100 1009.4
20260506201003 7 360 8.0 16.1 0.00 2.31 1.70 100 1009.3
20260506200006 7 360 3.2 14.5 0.00 2.31 1.70 100 1009.5
20260506195003 7 360 4.8 14.5 0.03 2.31 1.70 100 1009.5
20260506194003 7 360 4.8 14.5 0.03 2.31 1.70 100 1009.5
20260506193003 7 360 6.4 17.7 0.03 2.31 1.70 100 1009.5
20260506192004 7 360 3.2 12.9 0.03 2.31 1.70 100 1009.3
20260506191003 7 360 4.8 12.9 0.03 2.31 1.70 100 1009.0
20260506190003 7 360 4.8 19.3 0.00 2.29 1.68 100 1009.0
20260506185214 7 360 6.4 19.3 0.00 2.29 1.68 100 1009.1
20260506184004 7 360 6.4 19.3 0.00 2.29 1.68 100 1009.1
20260506183005 7 360 4.8 19.3 0.00 2.31 1.68 100 1009.0
20260506182005 7 360 6.4 16.1 0.00 2.34 1.68 100 1008.7
20260506181006 7 360 6.4 12.9 0.00 2.39 1.68 100 1008.6
20260506180214 7 360 6.4 16.1 0.03 2.51 1.68 100 1008.3
20260506175216 8 360 3.2 11.3 0.03 2.59 1.68 100 1008.3
20260506174214 8 360 3.2 11.3 0.03 2.59 1.68 100 1008.0
20260506173005 8 360 3.2 8.0 0.03 2.64 1.68 100 1008.3
20260506172005 8 360 1.6 8.0 0.03 2.64 1.68 100 1008.1
20260506171004 7 360 1.6 6.4 0.03 2.62 1.65 100 1008.1
20260506170213 7 360 1.6 6.4 0.03 2.62 1.65 100 1008.0
20260506165215 7 360 1.6 6.4 0.10 2.62 1.65 100 1008.0
20260506164004 7 360 1.6 9.7 0.15 2.62 1.65 100 1008.3
20260506163004 7 360 3.2 8.0 0.18 2.62 1.65 100 1008.1
20260506162003 7 360 1.6 8.0 0.20 2.62 1.65 100 1008.1
20260506161005 7 360 1.6 4.8 0.18 2.59 1.63 100 1008.3
20260506160213 7 360 3.2 9.7 0.20 2.59 1.63 100 1008.5
20260506155004 7 360 3.2 8.0 0.15 2.51 1.55 100 1008.3
20260506154003 7 360 1.6 8.0 0.13 2.46 1.50 100 1008.5
20260506153003 7 360 0.0 8.0 0.10 2.44 1.47 100 1008.5
20260506152006 7 0 0.0 0.0 0.10 2.39 1.45 100 1008.4
20260506151213 7 0 0.0 0.0 0.13 2.39 1.45 100 1008.1
20260506150005 7 0 0.0 0.0 0.10 2.36 1.42 100 1007.9
20260506145215 7 0 0.0 0.0 0.10 2.36 1.42 100 1008.1
20260506144003 7 360 1.6 6.4 0.13 2.34 1.37 100 1007.7
20260506143004 7 360 1.6 6.4 0.15 2.34 1.37 100 1008.0
20260506142003 7 0 0.0 0.0 0.15 2.31 1.35 100 1008.0
20260506141004 7 360 1.6 9.7 0.18 2.29 1.32 100 1008.1
20260506140214 6 360 3.2 9.7 0.23 2.29 1.32 100 1008.1
20260506135003 6 360 1.6 9.7 0.30 2.26 1.30 100 1008.1
20260506134214 6 360 3.2 11.3 0.38 2.26 1.30 100 1008.3
20260506133004 6 360 1.6 6.4 0.38 2.18 1.22 100 1008.4
20260506132005 6 360 1.6 8.0 0.43 2.16 1.19 100 1008.3
20260506131214 6 360 1.6 8.0 0.38 2.11 1.14 100 1008.4
20260506130214 6 360 3.2 8.0 0.36 2.03 1.09 100 1008.4
20260506125004 6 360 1.6 8.0 0.30 1.96 0.99 100 1008.4
20260506124004 6 360 3.2 6.4 0.20 1.85 0.89 100 1008.4
20260506123004 6 360 1.6 6.4 0.18 1.80 0.84 100 1008.2
20260506122004 6 360 3.2 9.7 0.15 1.75 0.79 100 1008.2
20260506121004 6 360 1.6 9.7 0.15 1.70 0.76 100 1008.0
20260506120004 6 360 3.2 9.7 0.20 1.68 0.71 100 1008.3
20260506115006 6 360 1.6 8.0 0.28 1.65 0.69 100 1008.2
20260506114004 7 360 1.6 6.4 0.28 1.65 0.69 100 1008.4
20260506113215 7 360 1.6 8.0 0.28 1.63 0.66 100 1008.2
20260506112004 7 360 1.6 8.0 0.28 1.60 0.64 100 1008.6
20260506111003 7 360 1.6 8.0 0.23 1.55 0.61 100 1008.7
20260506110005 7 360 1.6 6.4 0.13 1.45 0.48 100 1008.7
20260506105213 6 360 1.6 6.4 0.10 1.42 0.46 100 1008.5
20260506104004 6 360 1.6 6.4 0.10 1.37 0.43 100 1008.3
20260506103004 6 360 1.6 6.4 0.10 1.35 0.38 100 1008.4
20260506102003 6 360 0.0 6.4 0.10 1.32 0.36 100 1008.4
20260506101004 6 360 3.2 6.4 0.13 1.32 0.36 100 1008.1
20260506100005 6 360 1.6 6.4 0.13 1.32 0.36 100 1008.3
20260506095004 6 360 1.6 9.7 0.15 1.32 0.36 100 1008.3
20260506094214 6 360 1.6 8.0 0.15 1.30 0.33 100 1008.5
20260506093004 6 360 1.6 6.4 0.15 1.27 0.30 100 1008.9
20260506092004 7 360 1.6 6.4 0.15 1.22 0.28 100 1009.0
20260506091003 7 360 1.6 8.0 0.15 1.19 0.23 100 1008.9
20260506090003 7 360 3.2 9.7 0.18 1.17 0.20 100 1009.1
20260506085212 7 360 3.2 11.3 0.18 1.17 0.20 100 1009.1
20260506084005 7 360 3.2 9.7 0.18 1.14 0.18 100 1008.9
20260506083003 7 360 4.8 11.3 0.15 1.12 0.15 100 1008.8
20260506082004 7 360 6.4 12.9 0.13 1.09 0.13 100 1008.8
20260506081004 8 360 3.2 14.5 0.10 1.04 0.10 100 1009.1
20260506073004 8 360 1.6 6.4 0.00 0.99 0.00 100 1008.5
20260506072006 8 360 3.2 8.0 0.00 0.99 0.00 100 1008.3
20260506071005 8 360 0.0 6.4 0.00 0.99 0.00 100 1008.5
20260506062005 8 0 0.0 0.0 0.00 0.99 0.00 100 1009.1
20260506061006 8 360 1.6 9.7 0.00 0.99 0.00 100 1009.3
20260506051006 9 360 1.6 8.0 0.00 0.99 0.00 100 1009.9
20260506050213 9 360 0.0 8.0 0.00 0.99 0.00 100 1009.9
20260506044006 8 360 0.0 6.4 0.00 0.99 0.00 100 1010.1
20260506043004 8 360 0.0 4.8 0.03 0.99 0.00 100 1010.1
20260506042004 8 360 0.0 4.8 0.05 0.99 0.00 100 1010.3
20260506041003 8 0 0.0 3.2 0.10 0.99 0.00 100 1010.2
20260506040006 8 0 0.0 0.0 0.10 0.99 0.00 100 1010.1
20260506035003 8 0 0.0 0.0 0.13 0.99 0.99 100 1010.3
20260506034214 8 0 0.0 0.0 0.15 0.99 0.99 100 1010.3
20260506033004 8 0 0.0 0.0 0.13 0.94 0.94 99 1010.7
20260506032004 8 0 0.0 0.0 0.18 0.94 0.94 99 1010.3
20260506031004 8 0 0.0 0.0 0.20 0.89 0.89 100 1010.5
20260506030004 8 0 0.0 0.0 0.23 0.89 0.89 99 1010.3
20260506025004 8 360 0.0 3.2 0.23 0.86 0.86 98 1010.6
20260506024003 8 0 0.0 0.0 0.28 0.84 0.84 99 1010.7
20260506023003 8 0 0.0 0.0 0.28 0.81 0.81 97 1010.7
20260506022003 8 360 0.0 4.8 0.23 0.76 0.76 97 1010.8
20260506021006 8 360 0.0 6.4 0.18 0.69 0.69 96 1010.8
20260506020004 8 0 0.0 3.2 0.15 0.66 0.66 96 1010.7
20260506015005 8 360 0.0 4.8 0.15 0.64 0.64 95 1010.1
20260506014004 8 360 0.0 3.2 0.10 0.56 0.56 93 1010.3
20260506013004 8 360 0.0 4.8 0.05 0.53 0.53 92 1010.4
20260506012005 8 360 1.6 6.4 0.10 0.51 0.51 90 1010.6
20260506011006 9 360 1.6 9.7 0.10 0.51 0.51 89 1010.5
20260506010005 9 360 3.2 12.9 0.10 0.51 0.51 88 1010.4
20260506005004 10 360 4.8 14.5 0.05 0.48 0.48 84 1010.1
20260506004005 10 360 4.8 17.7 0.05 0.48 0.48 79 1010.0
20260506003004 12 360 6.4 17.7 0.05 0.48 0.48 71 1010.1
20260506002005 12 360 6.4 16.1 0.00 0.43 0.43 65 1009.9